FW2545 Weather Reports


Display with metric or nautical units.
time (UTC)temp
F
wind
direction
speed
MPH
gust
MPH
rain 1hr
in
rain 24hr
in
rain mn
in
humidity
%
barometer
mb
20260505210030 79 322 3.0 11.0 0.00 0.00 0.00 45 1015.2
20260505204607 78 318 3.0 10.0 0.00 0.00 0.00 46 1015.3
20260505203033 78 314 4.0 9.0 0.00 0.00 0.00 47 1015.4
20260505201529 77 319 4.0 9.0 0.00 0.00 0.00 48 1015.4
20260505200032 76 334 4.0 9.0 0.00 0.00 0.00 48 1015.6
20260505194526 76 322 4.0 9.0 0.00 0.00 0.00 49 1015.7
20260505193030 76 324 4.0 10.0 0.00 0.00 0.00 50 1015.7
20260505191531 74 342 4.0 10.0 0.00 0.00 0.00 52 1015.8
20260505190027 74 349 4.0 11.0 0.00 0.00 0.00 53 1015.9
20260505184526 72 332 4.0 10.0 0.00 0.00 0.00 57 1016.0
20260505181530 67 341 5.0 11.0 0.00 0.00 0.00 63 1016.0
20260505180146 66 342 3.0 9.0 0.00 0.00 0.00 65 1016.0
20260505174530 66 332 2.0 9.0 0.00 0.00 0.00 66 1016.0
20260505173030 65 318 2.0 7.0 0.00 0.00 0.00 69 1016.0
20260505171531 64 326 2.0 6.0 0.00 0.00 0.00 71 1016.0
20260505170029 63 323 2.0 7.0 0.00 0.00 0.00 72 1016.0
20260505164603 62 304 3.0 8.0 0.00 0.00 0.00 74 1015.9
20260505163030 61 54 2.0 7.0 0.00 0.00 0.00 76 1016.0
20260505161531 61 17 3.0 8.0 0.00 0.00 0.00 79 1016.0
20260505153030 55 64 2.0 5.0 0.00 0.00 0.00 91 1015.7
20260505151528 52 70 0.0 4.0 0.00 0.00 0.00 92 1015.7
20260505124530 45 178 0.0 2.0 0.00 0.00 0.00 91 1013.9
20260505123031 45 235 1.0 4.0 0.00 0.00 0.00 90 1013.8
20260505121530 46 202 0.0 3.0 0.00 0.00 0.00 90 1013.7
20260505114528 46 202 0.0 2.0 0.00 0.00 0.00 90 1013.7
20260505113027 47 187 1.0 4.0 0.00 0.00 0.00 89 1013.5
20260505101529 48 203 2.0 5.0 0.00 0.00 0.00 89 1013.1
20260505100033 48 232 1.0 4.0 0.00 0.00 0.00 88 1013.0
20260505094532 49 222 0.0 3.0 0.00 0.00 0.00 88 1013.0
20260505093032 49 202 0.0 0.0 0.00 0.00 0.00 87 1012.9
20260505091644 49 207 0.0 2.0 0.00 0.00 0.00 85 1012.9
20260505090030 50 205 0.0 3.0 0.00 0.00 0.00 85 1012.7
20260505084645 51 202 0.0 3.0 0.00 0.00 0.00 84 1012.8
20260505083029 51 244 0.0 3.0 0.00 0.00 0.00 84 1012.9
20260505081606 51 271 2.0 5.0 0.00 0.00 0.00 84 1012.8
20260505080107 51 292 1.0 4.0 0.00 0.00 0.00 82 1012.8
20260505074530 51 251 1.0 4.0 0.00 0.00 0.00 81 1012.7
20260505071531 52 251 0.0 3.0 0.00 0.00 0.00 79 1012.5
20260505070037 52 270 0.0 3.0 0.00 0.00 0.00 77 1012.4
20260505064527 53 255 1.0 4.0 0.00 0.00 0.00 75 1012.4
20260505063029 55 247 0.0 1.0 0.00 0.00 0.00 73 1012.4
20260505061604 56 247 0.0 3.0 0.00 0.00 0.00 70 1012.3
20260505060107 57 170 0.0 3.0 0.00 0.00 0.00 68 1012.3
20260505054532 58 202 1.0 4.0 0.00 0.00 0.00 66 1012.2
20260505053031 59 192 2.0 4.0 0.00 0.00 0.00 65 1012.2
20260505051533 60 237 1.0 6.0 0.00 0.00 0.00 62 1012.0
20260505041530 66 248 3.0 5.0 0.00 0.00 0.00 55 1011.5
20260505040043 66 233 3.0 7.0 0.00 0.00 0.00 55 1011.4
20260505034528 66 244 1.0 6.0 0.00 0.00 0.00 53 1011.1
20260505033031 68 213 2.0 5.0 0.00 0.00 0.00 50 1010.9
20260505031530 69 264 4.0 11.0 0.00 0.00 0.00 47 1010.7
20260505030033 71 263 4.0 10.0 0.00 0.00 0.00 46 1010.4
20260505024605 72 269 5.0 16.0 0.00 0.00 0.00 43 1010.3
20260505023031 73 265 8.0 14.0 0.00 0.00 0.00 42 1010.2
20260505020030 76 266 9.0 19.0 0.00 0.00 0.00 38 1010.1
20260505013119 76 261 9.0 19.0 0.00 0.00 0.00 41 1010.0
20260505010033 77 307 5.0 11.0 0.00 0.00 0.00 44 1010.0
20260505004530 78 315 6.0 13.0 0.00 0.00 0.00 43 1010.1
20260505003031 79 323 6.0 15.0 0.00 0.00 0.00 41 1010.1
20260505000028 80 330 6.0 14.0 0.00 0.00 0.00 41 1010.2
20260504234531 80 330 7.0 16.0 0.00 0.00 0.00 41 1010.2
20260504231530 81 336 5.0 12.0 0.00 0.00 0.00 39 1010.4
20260504230031 82 330 6.0 15.0 0.00 0.00 0.00 38 1010.5
20260504224531 82 333 7.0 16.0 0.00 0.00 0.00 37 1010.7
20260504223029 84 324 6.0 15.0 0.00 0.00 0.00 35 1010.8
20260504221531 84 323 5.0 13.0 0.00 0.00 0.00 35 1010.9
20260504220032 85 327 5.0 12.0 0.00 0.00 0.00 33 1011.0
20260504214530 85 325 4.0 11.0 0.00 0.00 0.00 31 1011.2